Flag for Canada Weather past 2 weeks in Kings County, Nova Scotia, Canada

Now
68 °F

Sprinkles. Mostly cloudy.


Feels Like: 68 °F
Forecast: 61 / 71 °F
Wind: 9 mph from Southwest

Location: Shearwater

Current Time: Jul 28, 2015 at 2:57:13 PM

Latest Report: Jul 28, 2015 at 2:00 PM


Visibility: 12 mi

Pressure: 30.00 "Hg

Humidity: 88%

Dew point: 64 °F

Location of Kings CountyLocation

Historic Weather in Kings County — Graph

°F

Kings County temperature yesterday

Maximum temperature yesterday: 66 °F (at 2:00 PM)
Minimum temperature yesterday: 63 °F (at 8:00 AM)
Average temperature yesterday: 64 °F

Past Weeks' High & Low Weather Summary

 TemperatureHumidityPressure
High82 °F (Jul 13, 4:00 PM)100% (Jul 14, 6:00 AM)30.13 "Hg (Jul 14, 6:00 AM)
Low55 °F (Jul 17, 6:00 AM)39% (Jul 17, 3:00 PM)29.53 "Hg (Jul 22, 5:00 PM)
Average65 °F84%29.82 "Hg
* Reported Jul 13 1:00 PM — Jul 28 1:00 PM, Kings County, Weather by CustomWeather, © 2015

Note: Actual official high and low records may vary slightly from our data, if they occured in-between our weather recording intervals... More about our weather records

Advertising

Kings County weather history for previous 24 hours

 ConditionsComfort  
Time TempWeatherWind HumidityBarometerVisibility
1:00 PM
Tue, Jul 28
68 °FSprinkles. Mostly cloudy.9 mph94%30.01 "Hg12 mi
12:00 PM68 °FSprinkles. Mostly cloudy.8 mph94%30.01 "Hg12 mi
11:00 AM66 °FMostly cloudy.10 mph94%30.02 "Hg15 mi
10:00 AM66 °FMostly cloudy.6 mph94%30.02 "Hg15 mi
9:00 AM64 °FCloudy.5 mph100%30.03 "Hg12 mi
8:00 AM64 °FMostly cloudy.7 mph94%30.03 "Hg15 mi
11:00 PM
Mon, Jul 27
64 °FPartly cloudy.5 mph94%30.08 "Hg12 mi
10:00 PM64 °FLow clouds.7 mph94%30.08 "Hg10 mi
9:00 PM66 °FLow clouds.5 mph94%30.08 "Hg10 mi
8:00 PM66 °FSprinkles. Mostly cloudy.8 mph94%30.08 "Hg10 mi
7:00 PM66 °FLow clouds.14 mph94%30.07 "Hg12 mi
6:00 PM66 °FMostly cloudy.14 mph94%30.08 "Hg12 mi
5:00 PM66 °FLow clouds.10 mph94%30.09 "Hg12 mi
4:00 PM64 °FMostly cloudy.7 mph100%30.09 "Hg12 mi
3:00 PM64 °FSprinkles. Fog.9 mph94%30.10 "Hg3 mi
2:56 PM64 °FSprinkles. Fog.8 mph94%30.10 "Hg5 mi
2:00 PM66 °FMostly cloudy.12 mph88%30.11 "Hg10 mi
Weather by CustomWeather, © 2015

See weather overviewHow to use our weather pages